Vertical_Velocity
-5 -1 -4 -3 -0 6 -3 -0 -3 -3 -5 -2 -1 3 -8 -0 -1 -3 -2 -5 0 -4 -2 -5 1 -3 -4 0 3 1 -2 2 2 -2 5 4 0 -0 -3 -1 -4 2 1
23 -5 -3 2 1 -1 -4 -4 2 -2 -7 -0 5 -10 -3 2 -0 -3 2 -3 -0 -4 0 -3 -8 4 -1 -1 -6 -1 0 6 1 -3 -3 -5 -2 -6 -5 -4 -2 4 3
-10 23 20 8 0 -1 1 -1 4 10 -3 -8 -1 5 5 -1 -3 0 2 1 -1 1 -0 -2 1 -1 -5 -3 -1 -4 -4 -1 3 1 -4 2 -1 -14 2 0 -0 -4 -2
-0 12 2 -6 -6 16 6 -3 -5 4 7 4 2 -0 -2 -4 1 1 1 -1 1 1 2 3 -5 -1 1 -5 -3 -0 -1 -2 -1 -2 -4 -9 -3 2 2 -0 2 2 -3
-5 4 9 2 1 -1 21 15 5 2 4 4 4 2 0 1 2 0 -0 1 -2 -1 0 0 -0 -2 -3 1 -3 -4 -3 -1 -1 -3 -7 -3 -5 -4 2 -2 0 -3 -6
-1 -5 5 -13 -9 -6 8 6 2 5 3 3 -1 5 6 3 -1 1 -2 -2 -0 0 -2 3 2 2 -1 1 5 -4 -1 1 -2 -2 -3 -3 -5 0 3 2 0 -3 -16
-8 -25 10 -11 7 -5 7 5 3 6 -4 -2 -3 2 -2 4 10 2 3 3 1 3 3 1 0 0 1 -0 0 2 2 5 5 3 -1 -2 -4 1 6 -4 1 4 -1
-8 7 9 9 15 5 7 2 3 2 1 2 -0 0 -4 -4 0 3 8 2 1 0 -0 0 -2 -3 -1 -1 0 0 -1 -3 2 0 -2 -4 -3 -0 -1 2 -1 -6 -5
-3 -0 -1 -5 -3 -2 -3 -0 0 3 -1 2 5 -0 5 3 -1 -2 1 4 0 -3 2 1 -1 -2 -7 -1 -1 -6 -1 -4 1 1 -2 -3 2 2 4 0 -5 4 -12
5 5 1 -2 2 3 0 2 3 -2 0 -1 5 1 -1 -2 4 5 5 2 -1 -4 3 -0 2 4 9 3 3 3 -5 -4 -1 -3 0 4 4 -0 5 8 6 -8 8
-4 -5 -5 -5 -3 -1 -0 -1 1 -0 -1 -0 -2 3 -0 1 -1 4 10 -0 -1 -1 -3 -1 -0 -3 2 -1 -3 -4 -9 5 -4 6 2 2 -1 -1 -2 2 2 2 0
-2 -1 -1 -2 -1 1 1 -0 -1 2 1 -1 -1 0 7 9 3 2 -0 0 2 -0 0 1 4 -6 8 1 -2 3 1 2 -6 -3 1 -5 -8 -5 -1 -3 -2 -1 -0
-0 -1 -2 -0 3 -1 -5 -5 2 -1 2 2 3 4 1 3 0 1 1 -0 -1 -1 -1 -0 -1 4 -4 -5 2 3 3 1 1 -4 -5 -5 0 -5 -1 2 2 3 -0
-2 -1 -2 -4 -4 -2 -1 -1 -1 1 1 3 3 -0 -1 0 -1 1 0 -0 3 -0 -2 -1 -4 -2 -2 -4 -3 5 1 2 3 -3 -6 -4 0 -3 -10 3 -5 2 1
-1 -0 1 0 1 0 1 0 1 3 5 1 0 2 -1 -5 -3 -1 -1 -0 -1 0 -5 -2 -3 1 -4 1 -4 3 -2 2 5 8 4 2 -1 0 -6 8 2 5 -6
-2 -2 -2 -1 -1 1 -1 -5 7 2 -2 0 2 2 -0 8 2 -1 -1 0 1 -3 -5 -4 -5 -1 -2 2 1 1 3 0 5 -3 -4 1 3 1 -4 1 3 3 0
-2 -2 -2 -3 -3 -3 -4 -3 -12 -6 -0 -3 -1 3 -0 -3 2 3 2 2 -3 -1 -4 1 -3 -1 -2 -2 -1 3 -3 -1 6 2 9 1 11 -1 3 4 10 13 -7
-0 -2 -4 -4 -3 -3 -4 -4 -2 -2 -11 -11 1 -2 -3 -1 -3 -2 -4 -2 -1 -3 -2 -3 -4 -1 -2 -2 0 3 3 2 -1 0 -1 1 -0 2 3 -7 -4 1 10
-3 -3 -2 -2 -2 -3 -4 -5 -6 -7 -6 -5 -5 0 -0 -2 -5 0 2 0 -1 -3 2 3 4 5 2 3 2 -0 3 4 7 6 1 6 -4 -3 -3 -8 -47 -24 13
-1 -2 -2 -4 -3 -3 -3 -4 -5 -4 -4 -5 -5 -6 -5 -6 -6 -6 -0 2 2 -1 -1 1 1 1 3 5 0 -1 -2 1 4 4 1 -3 -2 0 -12 -4 -6 8 8
-4 -1 -2 -3 -4 -3 -3 -4 -4 -4 -4 -4 -5 -3 -1 -4 -5 -5 -6 -3 -1 0 -1 -2 -2 -2 -2 -7 -1 2 1 -7 1 6 -1 -9 25 5 1 3 9 10 -2
-5 -3 -2 -2 -2 -4 -3 -1 -0 -2 -3 -5 -7 -8 -5 -3 -3 -2 -3 -3 -2 0 -2 6 -1 0 -2 1 -1 2 0 -1 -1 7 1 1 -8 6 8 9 0 -11 -2
-5 -3 -3 -2 -2 -2 -3 -2 -3 -4 -3 -2 -2 -4 -5 -5 -4 -4 -3 -2 -1 -3 1 5 1 -4 1 0 4 2 -0 2 -1 -2 1 2 -1 0 -2 0 2 -3 -12
-7 -9 -7 -6 -2 -3 -5 -3 -3 -1 -2 -2 -2 -1 -1 -3 -6 -6 -3 -3 -4 -4 -2 4 2 -5 1 -4 -2 -1 -2 1 1 -2 -2 0 -1 -1 1 -1 1 -2 1
5 -1 -1 -3 -10 -6 0 -1 -5 -9 -6 -2 1 -0 0 1 -0 -3 -4 -2 -3 -6 -4 -1 -0 -8 -6 1 -1 -0 -1 -3 -3 4 -1 -3 -2 6 -3 -3 0 3 0
0 -5 -3 -1 -2 -3 -3 -4 -3 -5 -5 -4 -4 -2 -2 -2 -1 -1 -3 -3 -1 -1 -1 -4 -2 -3 -4 -3 -2 -1 -3 -0 -3 2 1 -1 -3 -3 -2 -2 -1 -0 -1
Height
1574 1577 1582 1584 1587 1590 1592 1594 1595 1596 1597 1599 1599 1601 1602 1603 1604 1605 1606 1607 1607 1609 1610 1610 1611 1612 1612 1612 1612 1613 1614 1613 1613 1613 1612 1613 1611 1610 1609 1607 1605 1602 1600
1572 1572 1575 1580 1583 1586 1589 1591 1593 1593 1595 1597 1598 1598 1601 1602 1602 1603 1604 1604 1606 1606 1608 1608 1609 1609 1610 1610 1610 1611 1611 1612 1611 1610 1610 1610 1608 1608 1606 1604 1602 1601 1599
1572 1572 1574 1576 1579 1582 1585 1589 1590 1591 1591 1593 1595 1597 1598 1599 1601 1601 1602 1602 1603 1604 1605 1606 1607 1607 1607 1607 1608 1608 1609 1609 1609 1608 1607 1607 1606 1606 1604 1601 1599 1598 1597
1568 1569 1569 1572 1576 1580 1582 1585 1587 1588 1589 1591 1592 1593 1594 1596 1598 1599 1599 1600 1601 1602 1603 1603 1604 1605 1605 1605 1605 1605 1606 1605 1606 1606 1605 1605 1605 1603 1602 1600 1598 1596 1594
1561 1565 1564 1568 1571 1575 1580 1580 1584 1585 1586 1588 1589 1590 1591 1593 1594 1595 1595 1596 1598 1599 1600 1600 1601 1602 1602 1603 1602 1602 1602 1602 1602 1602 1602 1602 1601 1600 1599 1597 1595 1594 1591
1562 1563 1562 1563 1566 1574 1575 1577 1578 1581 1583 1583 1585 1586 1588 1588 1590 1591 1592 1594 1595 1595 1596 1597 1597 1598 1598 1599 1600 1599 1598 1598 1598 1598 1599 1598 1598 1597 1596 1594 1592 1589 1586
1556 1561 1565 1566 1570 1570 1573 1573 1572 1574 1577 1579 1580 1581 1582 1584 1586 1588 1589 1589 1590 1592 1592 1592 1593 1594 1595 1595 1595 1595 1595 1594 1595 1595 1594 1593 1593 1592 1592 1590 1588 1586 1583
1559 1564 1563 1565 1566 1566 1567 1568 1569 1570 1573 1574 1576 1577 1577 1579 1580 1581 1583 1584 1585 1586 1586 1587 1588 1588 1589 1589 1589 1588 1588 1588 1589 1590 1588 1587 1587 1588 1587 1586 1584 1581 1577
1561 1561 1560 1561 1562 1562 1563 1564 1565 1566 1568 1570 1570 1571 1572 1573 1574 1576 1577 1577 1577 1578 1579 1580 1581 1580 1581 1583 1583 1581 1580 1579 1581 1581 1581 1581 1580 1581 1582 1580 1578 1576 1572
1560 1559 1559 1561 1563 1563 1563 1564 1562 1562 1564 1564 1565 1566 1566 1568 1568 1569 1568 1569 1568 1570 1571 1571 1572 1573 1574 1575 1575 1574 1571 1571 1573 1572 1571 1571 1573 1572 1574 1574 1573 1570 1568
1559 1559 1560 1562 1563 1561 1561 1562 1561 1561 1560 1560 1561 1561 1562 1562 1560 1560 1560 1561 1562 1561 1561 1562 1563 1563 1564 1564 1565 1564 1563 1564 1564 1564 1562 1562 1562 1561 1562 1563 1563 1563 1560
1559 1559 1560 1559 1558 1558 1559 1559 1559 1558 1558 1558 1559 1559 1558 1556 1555 1555 1555 1555 1554 1553 1553 1554 1555 1553 1554 1554 1555 1555 1555 1555 1555 1554 1553 1552 1553 1552 1552 1552 1552 1553 1552
1553 1554 1555 1556 1557 1556 1555 1555 1557 1556 1557 1557 1556 1556 1555 1554 1553 1551 1551 1550 1549 1547 1546 1546 1545 1544 1546 1546 1546 1546 1546 1545 1545 1544 1544 1543 1543 1544 1544 1543 1543 1542 1540
1552 1551 1551 1550 1550 1552 1552 1551 1551 1552 1553 1552 1552 1552 1551 1550 1549 1548 1546 1546 1544 1542 1541 1540 1539 1537 1537 1537 1536 1535 1536 1535 1534 1533 1533 1534 1534 1534 1534 1535 1533 1531 1529
1549 1548 1548 1548 1548 1548 1548 1548 1547 1548 1548 1547 1547 1547 1546 1544 1544 1543 1541 1539 1538 1536 1534 1533 1533 1532 1530 1529 1529 1527 1525 1525 1524 1524 1524 1523 1522 1523 1523 1524 1524 1523 1520
1547 1546 1545 1544 1543 1542 1541 1541 1543 1542 1542 1543 1543 1542 1541 1541 1538 1537 1536 1534 1533 1530 1527 1526 1525 1525 1523 1521 1519 1517 1517 1517 1517 1517 1516 1516 1515 1514 1514 1515 1516 1516 1513
1546 1545 1544 1543 1541 1540 1538 1536 1533 1534 1534 1535 1535 1535 1534 1533 1532 1531 1529 1528 1526 1525 1522 1520 1518 1517 1515 1514 1512 1509 1507 1507 1507 1508 1509 1510 1510 1506 1506 1505 1507 1507 1505
1545 1544 1543 1542 1540 1538 1536 1534 1532 1530 1527 1526 1528 1528 1528 1527 1524 1522 1520 1518 1518 1517 1515 1513 1511 1509 1507 1506 1505 1503 1501 1499 1498 1498 1500 1500 1499 1498 1496 1496 1497 1500 1500
1543 1542 1541 1540 1538 1536 1535 1533 1531 1529 1525 1522 1520 1520 1519 1517 1514 1514 1513 1511 1509 1508 1507 1505 1504 1503 1501 1500 1498 1496 1494 1492 1492 1492 1492 1490 1487 1484 1480 1487 1476 1477 1492
1542 1540 1539 1538 1536 1533 1531 1529 1526 1524 1521 1518 1515 1512 1509 1506 1504 1503 1503 1502 1501 1500 1499 1497 1495 1494 1492 1491 1489 1487 1486 1485 1483 1483 1482 1480 1479 1474 1474 1480 1484 1481 1481
1540 1539 1537 1535 1533 1531 1528 1526 1523 1519 1515 1511 1508 1506 1504 1500 1495 1493 1492 1491 1491 1490 1489 1488 1485 1484 1482 1481 1479 1477 1477 1477 1477 1475 1476 1473 1470 1472 1470 1463 1468 1469 1467
1536 1535 1534 1532 1530 1528 1525 1522 1518 1513 1509 1505 1501 1498 1495 1492 1488 1484 1482 1480 1479 1478 1478 1477 1474 1472 1471 1469 1468 1466 1466 1465 1466 1465 1465 1465 1464 1459 1460 1459 1457 1459 1460
1532 1532 1531 1529 1526 1523 1521 1517 1513 1508 1503 1499 1494 1490 1486 1483 1479 1475 1471 1469 1467 1465 1464 1464 1462 1460 1460 1457 1456 1456 1454 1453 1454 1453 1451 1452 1453 1453 1452 1450 1450 1450 1450
1530 1529 1529 1528 1524 1520 1517 1513 1508 1502 1497 1492 1488 1483 1478 1474 1470 1466 1461 1457 1454 1452 1451 1449 1447 1445 1445 1443 1444 1443 1443 1442 1441 1441 1441 1439 1438 1439 1439 1440 1439 1440 1439
1528 1526 1525 1523 1519 1517 1514 1508 1502 1497 1493 1488 1482 1475 1470 1464 1459 1456 1451 1446 1442 1439 1437 1435 1432 1430 1429 1429 1429 1428 1428 1429 1429 1428 1427 1426 1425 1424 1424 1424 1424 1424 1425
1523 1521 1520 1518 1516 1513 1509 1504 1499 1493 1488 1482 1476 1469 1463 1457 1451 1446 1441 1437 1432 1428 1424 1421 1418 1416 1414 1413 1413 1413 1413 1413 1413 1414 1413 1411 1411 1411 1411 1411 1413 1414 1414